Regional Weather Roundup
Issued by NWS

Home | Current Version | Previous Version | Graphics & Text | Print | Product List | Glossary Off
Versions: 1 2 3 4 5 6 7 8 9 10 11 12 13 14 15 16 17 18 19 20 21 22 23 24 25 26 27 28 29 30 31 32 33 34 35 36 37 38 39 40 41 42 43 44 45 46 47 48 49 50

000
ASUS43 KLSX 290110
RWRMO

WEATHER SUMMARY FOR MISSOURI
NATIONAL WEATHER SERVICE SPRINGFIELD MO
800 PM CDT THU APR 28 2016

NOTE: "FAIR" INDICATES FEW OR NO CLOUDS BELOW 12,000 FEET WITH NO
       SIGNIFICANT WEATHER AND/OR OBSTRUCTIONS TO VISIBILITY.
       CURRENT SKY AND/OR WEATHER CONDITIONS ARE NOT AVAILABLE FOR
       CHILLICOTHE AND FARMINGTON.

MOZ001>031-035>038-043-044-053-054-290200-
...NORTHERN AND WESTERN MISSOURI...

CITY           SKY/WX    TMP DP  RH WIND       PRES   REMARKS
KANSAS CTY INT CLOUDY    54  46  74 N3        30.02R
KANSAS C DTWN  PTCLDY    56  45  66 N6        30.01R
LEE`S SUMMIT   CLEAR     55  45  68 N7        30.02R
ST JOSEPH      CLOUDY    53  46  77 N6        30.02R
CHILLICOTHE      N/A     55  46  71 VRB5      30.03R
KIRKSVILLE     CLOUDY    56  45  66 W6        30.00R

$$
MOZ066>068-077>081-088>096-101>105-290200-
...SOUTHWEST MISSOURI...

CITY           SKY/WX    TMP DP  RH WIND       PRES   REMARKS
SPRINGFIELD    CLEAR     64  46  52 N6        29.97S
JOPLIN         CLEAR     63  51  65 NE6       29.96F
BRANSON        PTCLDY    70  45  40 N3        29.97S

$$
MOZ032>034-039>042-045>050-055>058-069>072-290200-
...CENTRAL MISSOURI...

CITY           SKY/WX    TMP DP  RH WIND       PRES   REMARKS
COLUMBIA       CLEAR     58  49  72 NW8       30.00R
JEFFERSON CITY CLEAR     62  50  64 N6        29.99R
ROLLA          PTCLDY    63  47  55 W6        29.97R
SEDALIA        CLEAR     58  51  78 N9        30.02R
WHITEMAN AFB   PTCLDY    56  50  79 N8        30.00R
WARRENSBURG    CLEAR     55  46  71 N7        30.01R
OSAGE BEACH    CLEAR     64  45  48 CALM      29.99R

$$
MOZ051-052-059>065-290200-
...EAST CENTRAL MISSOURI...

CITY           SKY/WX    TMP DP  RH WIND       PRES   REMARKS
ST LOUIS INTL  PTCLDY    65  50  58 NW7       29.97R
SPIRIT OF STL  PTCLDY    64  51  62 N9        29.97R
ST CHARLES     CLEAR     61  51  70 NW8       29.97R

$$
MOZ072>076-082>087-097>100-106>115-290200-
...SOUTH CENTRAL AND SOUTHEAST MISSOURI...

CITY           SKY/WX    TMP DP  RH WIND       PRES   REMARKS
CAPE GIRARDEAU CLEAR     68  56  65 S3        29.93R
FARMINGTON     CLEAR     68  44  42 NW5       29.96R
POPLAR BLUFF   CLEAR     71  53  52 CALM      29.93R
WEST PLAINS    CLEAR     70  41  34 N3        29.98R

$$



USA.gov is the U.S. government's official web portal to all federal, state and local government web resources and services.